Stations météo

Publicité
Cognac, France (7412): Température de l'air & dewpoint: 14.04.2019 15:00:00 - 20.04.2019 15:00:00 (CEST)Cognac, France (7412): Température de l'air 5cm: 14.04.2019 15:00:00 - 20.04.2019 15:00:00 (CEST)Cognac, France (7412): Température de l'air -20cm & Température de l'air -100cm: 14.04.2019 15:00:00 - 20.04.2019 15:00:00 (CEST)Cognac, France (7412): Vitesse du vent & gusts: 14.04.2019 15:00:00 - 20.04.2019 15:00:00 (CEST)Cognac, France (7412): Direction du vent: 14.04.2019 15:00:00 - 20.04.2019 15:00:00 (CEST)Cognac, France (7412): reduced air pressure: 14.04.2019 15:00:00 - 20.04.2019 15:00:00 (CEST)Cognac, France (7412): visibility: 14.04.2019 15:00:00 - 20.04.2019 15:00:00 (CEST)Cognac, France (7412): Ensoleillement: 14.04.2019 15:00:00 - 20.04.2019 15:00:00 (CEST)Cognac, France (7412): Quantités de précipitations: 14.04.2019 15:00:00 - 20.04.2019 15:00:00 (CEST)
Date & Time tt [°C] td [°C] tt 5cm [°C] tt -20cm [°C] tt -100cm [°C] ff [km/h] ff [knt] fx [km/h] fx [knt] dd ppp [hPa] vv [km] sd [min] rr [mm]
20.04.2019 15:00:00 - - - - - - - - - - - - - -
20.04.2019 14:00:00 23,5 4,9 27,9 14,8 12,8 12 6 28 15 E 1023,0 17 48 0,0
20.04.2019 13:00:00 22,5 4,5 27,8 14,8 12,8 8 4 15 8 NNE 1023,5 46 56 0,0
20.04.2019 12:00:00 21,7 6,0 25,3 14,9 12,8 5 3 14 8 SE 1024,1 49 60 0,0
20.04.2019 11:00:00 18,4 7,2 20,4 14,9 12,9 5 3 11 6 SSE 1024,4 60 47 0,0
20.04.2019 10:00:00 16,2 6,3 16,7 15,0 12,8 5 3 8 5 ESE 1024,7 41 45 0,0
20.04.2019 09:00:00 13,9 6,7 12,1 15,0 12,8 4 2 6 4 ENE 1025,1 37 47 0,0
20.04.2019 08:00:00 11,5 6,6 8,5 15,1 12,8 3 1 10 5 ENE 1025,2 31 14 0,0
20.04.2019 07:00:00 10,1 7,0 6,4 15,1 12,8 7 4 9 5 E 1024,7 23 0 0,0
20.04.2019 06:00:00 9,6 6,5 6,3 15,1 12,8 0 0 9 5 N 1024,8 23 0 0,0
20.04.2019 05:00:00 11,8 7,1 7,8 15,1 12,8 5 3 6 4 NE 1025,1 27 0 0,0
20.04.2019 04:00:00 13,3 7,1 9,2 15,1 12,8 0 0 12 6 N 1025,1 37 0 0,0
20.04.2019 03:00:00 13,4 7,4 9,6 15,0 12,8 9 5 16 9 SE 1025,0 37 0 0,0
20.04.2019 02:00:00 15,4 7,2 11,7 15,0 12,8 5 3 10 5 SE 1025,3 39 0 0,0
20.04.2019 01:00:00 15,7 7,7 11,2 14,9 12,8 5 3 9 5 SE 1025,4 39 0 0,0
20.04.2019 00:00:00 16,9 7,5 12,7 14,8 12,8 3 2 18 10 ESE 1025,3 51 0 0,0
19.04.2019 23:00:00 18,3 8,5 14,7 14,7 12,8 9 5 16 8 ESE 1024,9 56 0 0,0
19.04.2019 22:00:00 20,3 8,6 18,1 14,6 12,8 11 6 19 10 NE 1024,3 60 0 0,0
19.04.2019 21:00:00 22,7 8,4 20,4 14,5 12,7 16 9 28 15 NE 1023,4 60 29 0,0
19.04.2019 20:00:00 24,5 7,6 23,3 14,4 12,7 5 3 15 8 ESE 1022,7 59 60 0,0
19.04.2019 19:00:00 25,9 5,5 27,2 14,2 12,7 11 6 25 14 ESE 1022,4 54 60 0,0
19.04.2019 18:00:00 26,2 5,7 27,6 14,1 12,7 16 9 30 16 SE 1022,1 22 60 0,0
19.04.2019 17:00:00 26,3 6,3 28,6 14,0 12,7 19 10 34 19 ESE 1022,1 25 60 0,0
19.04.2019 16:00:00 25,9 5,5 29,3 14,0 12,7 16 9 32 17 ESE 1022,1 27 60 0,0
19.04.2019 15:00:00 25,0 6,7 28,2 14,0 12,7 19 10 36 20 ESE 1022,6 30 60 0,0
19.04.2019 14:00:00 24,1 5,9 27,6 14,0 12,7 22 12 39 21 ESE 1022,7 37 60 0,0
19.04.2019 13:00:00 22,9 5,8 26,1 14,0 12,7 22 12 40 22 SE 1022,8 44 60 0,0
19.04.2019 12:00:00 21,9 5,3 24,0 14,1 12,7 24 13 37 20 SE 1022,8 55 60 0,0
19.04.2019 11:00:00 19,7 7,1 21,2 14,2 12,7 17 9 24 13 E 1022,7 60 60 0,0
19.04.2019 10:00:00 16,6 6,7 17,2 14,2 12,7 9 5 15 8 E 1022,4 37 58 0,0
19.04.2019 09:00:00 13,7 6,5 11,6 14,2 12,7 6 3 12 6 E 1021,9 12 46 0,0
19.04.2019 08:00:00 11,9 4,8 8,9 14,2 12,7 6 3 12 6 ENE 1021,5 35 28 0,0
19.04.2019 07:00:00 11,3 5,0 9,4 14,3 12,7 9 5 15 8 E 1020,8 37 0 0,0
19.04.2019 06:00:00 12,1 5,3 10,0 14,3 12,7 10 6 13 7 E 1020,4 35 0 0,0
19.04.2019 05:00:00 12,2 6,2 9,9 14,3 12,7 10 5 12 7 E 1020,2 39 0 0,0
19.04.2019 04:00:00 12,9 6,7 10,5 14,3 12,6 11 6 15 8 E 1019,6 43 0 0,0
19.04.2019 03:00:00 13,6 7,1 11,5 14,3 12,6 10 6 14 8 E 1019,3 42 0 0,0
19.04.2019 02:00:00 14,9 7,7 12,8 14,2 12,7 12 7 16 9 E 1019,3 47 0 0,0
19.04.2019 01:00:00 15,2 9,5 12,5 14,2 12,7 10 5 12 7 ENE 1019,0 39 0 0,0
19.04.2019 00:00:00 14,8 10,2 12,2 14,1 12,6 5 3 11 6 ESE 1018,7 37 0 0,0
18.04.2019 23:00:00 15,2 10,0 12,8 14,0 12,6 4 2 16 8 S 1018,1 38 0 0,0
18.04.2019 22:00:00 15,9 10,6 13,3 13,9 12,6 8 4 11 6 ESE 1017,5 38 0 0,0
18.04.2019 21:00:00 18,2 10,3 15,4 13,8 12,6 2 1 9 5 WNW 1016,7 54 0 0,0
18.04.2019 20:00:00 19,8 10,5 19,1 13,7 12,6 8 4 12 6 W 1016,0 60 0 0,0
18.04.2019 19:00:00 20,8 10,0 21,2 13,6 12,6 8 5 15 8 WNW 1015,6 60 0 0,0
18.04.2019 18:00:00 21,7 9,9 22,9 13,5 12,6 12 7 25 13 WSW 1015,6 51 25 0,0
18.04.2019 17:00:00 22,0 9,5 24,9 13,5 12,6 10 5 29 16 S 1015,9 41 55 0,0
18.04.2019 16:00:00 21,9 8,7 26,1 13,4 12,6 20 11 32 17 S 1016,4 51 60 0,0
18.04.2019 15:00:00 21,2 9,1 24,6 13,5 12,6 13 7 27 15 SSE 1016,4 40 60 0,0
18.04.2019 14:00:00 19,3 9,2 21,4 13,5 12,6 18 10 28 15 SE 1016,4 41 46 0,0
18.04.2019 13:00:00 17,8 8,9 19,3 13,5 12,6 19 10 27 15 SE 1016,2 46 5 0,0
18.04.2019 12:00:00 16,6 8,0 17,5 13,5 12,6 18 10 31 17 SE 1016,0 41 0 0,0
18.04.2019 11:00:00 15,6 8,1 16,5 13,6 12,6 15 8 23 12 ESE 1016,3 47 0 0,0
18.04.2019 10:00:00 14,3 7,6 13,7 13,6 12,6 14 8 23 13 E 1016,2 41 0 0,0
18.04.2019 09:00:00 12,8 7,2 11,9 13,7 12,6 10 5 16 9 E 1015,7 60 0 0,0
18.04.2019 08:00:00 12,1 6,4 10,6 13,7 12,5 9 5 13 7 ENE 1015,3 59 0 0,0
18.04.2019 07:00:00 11,7 6,6 10,7 13,7 12,5 8 4 13 7 ENE 1014,5 60 0 0,0
18.04.2019 06:00:00 12,0 6,5 10,3 13,7 12,5 9 5 14 7 E 1013,9 60 0 0,0
18.04.2019 05:00:00 11,9 6,8 10,3 13,7 12,6 2 1 16 9 E 1013,9 58 0 0,0
18.04.2019 04:00:00 13,0 6,6 11,2 13,7 12,5 11 6 15 8 E 1014,1 60 0 0,0
18.04.2019 03:00:00 13,3 6,6 11,6 13,7 12,5 10 5 16 9 E 1014,2 60 0 0,0
18.04.2019 02:00:00 13,7 6,8 11,4 13,7 12,5 10 5 21 11 E 1014,2 58 0 0,0
18.04.2019 01:00:00 13,2 7,0 11,3 13,7 12,5 14 8 21 12 ESE 1014,1 60 0 0,0
18.04.2019 00:00:00 13,7 7,5 10,6 13,6 12,5 12 7 18 10 ESE 1013,8 57 0 0,0
17.04.2019 23:00:00 15,3 7,3 12,9 13,5 12,5 11 6 25 13 E 1013,6 59 0 0,0
17.04.2019 22:00:00 15,7 8,4 13,8 13,5 12,5 15 8 26 14 ESE 1013,2 57 0 0,0
17.04.2019 21:00:00 16,5 10,8 14,3 13,4 12,5 8 5 10 5 ESE 1012,7 58 0 0,0
17.04.2019 20:00:00 18,3 10,9 16,9 13,3 12,5 7 4 13 7 SE 1012,4 60 0 0,0
17.04.2019 19:00:00 20,5 9,7 20,6 13,2 12,5 11 6 18 10 E 1012,1 60 0 0,0
17.04.2019 18:00:00 20,9 9,5 21,5 13,2 12,5 15 8 24 13 ESE 1012,1 52 0 0,0
17.04.2019 17:00:00 20,8 8,8 21,8 13,2 12,5 15 8 26 14 SE 1012,6 57 0 0,0
17.04.2019 16:00:00 20,9 8,5 22,3 13,1 12,4 17 9 29 16 ESE 1013,2 48 0 0,0
17.04.2019 15:00:00 20,4 8,4 21,7 13,2 12,5 18 10 31 17 ESE 1013,5 40 0 0,0
17.04.2019 14:00:00 19,9 8,2 22,5 13,2 12,5 23 13 34 18 ESE 1013,8 58 13 0,0
17.04.2019 13:00:00 18,8 8,4 21,1 13,2 12,5 22 12 35 19 E 1014,4 50 26 0,0
17.04.2019 12:00:00 18,6 8,5 18,4 13,3 12,5 25 13 36 19 ESE 1015,0 56 54 0,0
17.04.2019 11:00:00 15,7 8,4 15,2 13,3 12,5 21 12 31 17 E 1015,6 60 24 0,0
17.04.2019 10:00:00 13,2 8,7 13,1 13,4 12,5 16 9 26 14 E 1015,8 50 31 0,0
17.04.2019 09:00:00 11,3 7,6 9,1 13,4 12,4 18 10 24 13 E 1015,8 33 56 0,0
17.04.2019 08:00:00 8,9 6,7 7,4 13,5 12,4 13 7 21 11 E 1016,2 42 12 0,0
17.04.2019 07:00:00 8,9 6,5 8,2 13,5 12,4 13 7 17 9 E 1016,2 43 0 0,0
17.04.2019 06:00:00 9,1 6,5 8,3 13,6 12,5 11 6 16 9 E 1016,6 41 0 0,0
17.04.2019 05:00:00 9,1 6,7 8,2 13,6 12,5 12 6 14 8 E 1016,9 40 0 0,0
17.04.2019 04:00:00 9,3 6,9 8,0 13,6 12,4 12 6 14 7 ENE 1017,4 39 0 0,0
17.04.2019 03:00:00 9,8 7,2 8,2 13,6 12,4 9 5 12 6 ENE 1018,2 42 0 0,0
17.04.2019 02:00:00 9,8 7,4 8,2 13,6 12,4 9 5 11 6 ENE 1018,7 39 0 0,0
17.04.2019 01:00:00 9,7 7,3 8,2 13,5 12,4 8 4 10 5 E 1018,9 30 0 0,0
17.04.2019 00:00:00 11,9 8,0 10,4 13,5 12,4 6 3 14 7 NE 1019,2 41 0 0,0
16.04.2019 23:00:00 12,7 8,4 11,7 13,5 12,4 10 6 16 9 NNE 1019,1 38 0 0,0
16.04.2019 22:00:00 13,9 7,9 11,1 13,4 12,4 11 6 15 8 N 1019,2 52 0 0,0
16.04.2019 21:00:00 14,4 7,7 11,8 13,3 12,4 7 4 9 5 NW 1019,0 60 0 0,0
16.04.2019 20:00:00 16,9 7,0 16,2 13,2 12,4 7 4 15 8 WSW 1018,8 46 53 0,0
16.04.2019 19:00:00 18,0 7,1 20,8 13,2 12,4 6 4 16 8 WSW 1018,7 37 60 0,0
16.04.2019 18:00:00 18,3 7,4 22,0 13,1 12,4 10 6 22 12 WSW 1018,9 17 60 0,0
16.04.2019 17:00:00 18,2 7,3 18,4 13,0 12,4 11 6 24 13 W 1019,1 60 24 0,0
16.04.2019 16:00:00 17,1 6,9 18,4 13,0 12,4 13 7 28 15 W 1019,4 57 40 0,0
16.04.2019 15:00:00 16,6 7,2 18,7 13,0 12,4 18 10 27 14 W 1019,6 22 30 0,0
16.04.2019 14:00:00 16,0 8,0 17,8 13,0 12,4 16 9 29 15 WNW 1019,5 43 30 0,0
16.04.2019 13:00:00 16,1 8,1 16,9 13,0 12,4 16 9 29 16 WNW 1019,5 60 28 0,0
16.04.2019 12:00:00 15,2 8,4 15,6 13,0 12,4 17 9 37 20 W 1019,6 50 38 0,0
16.04.2019 11:00:00 13,7 10,1 14,2 13,0 12,4 20 11 31 17 W 1019,4 33 22 0,0
16.04.2019 10:00:00 13,5 10,1 13,4 13,0 12,4 16 9 27 14 W 1018,7 26 56 0,0
16.04.2019 09:00:00 11,4 9,8 10,4 13,0 12,4 13 7 21 11 W 1018,7 19 30 0,0
16.04.2019 08:00:00 11,1 9,7 10,4 13,1 12,4 13 7 23 12 W 1017,9 18 0 0,0
16.04.2019 07:00:00 11,4 10,3 10,8 13,1 12,4 17 9 28 15 W 1017,0 18 0 0,2
16.04.2019 06:00:00 11,7 11,1 11,3 13,0 12,4 18 10 34 18 W 1016,2 6 0 0,6
16.04.2019 05:00:00 12,4 11,6 11,9 13,1 12,4 14 8 22 12 WSW 1015,4 14 0 0,0
16.04.2019 04:00:00 12,6 12,1 12,0 13,0 12,4 16 9 24 13 WSW 1015,0 7 0 0,0
16.04.2019 03:00:00 12,3 11,8 12,0 13,0 12,4 18 10 30 16 SW 1014,5 9 0 0,0
16.04.2019 02:00:00 12,4 12,1 12,1 13,0 12,4 17 9 23 12 SW 1014,5 10 0 4,4
16.04.2019 01:00:00 12,4 12,1 11,7 13,0 12,4 10 5 20 11 SSW 1014,0 2,1 0 0,8
16.04.2019 00:00:00 12,0 11,4 11,2 12,9 12,4 12 7 25 14 S 1013,4 15 0 1,0
15.04.2019 23:00:00 11,8 11,0 11,3 12,9 12,4 19 10 26 14 E 1011,8 5 0 1,6
15.04.2019 22:00:00 12,4 10,8 11,2 12,8 12,4 5 3 57 31 SSE 1013,2 8 0 2,6
15.04.2019 21:00:00 14,2 8,4 11,4 12,8 12,4 32 17 59 32 SW 1012,8 10 0 0,4
15.04.2019 20:00:00 18,0 1,5 17,8 12,7 12,4 0 0 14 8 N 1009,5 60 0 0,0
15.04.2019 19:00:00 18,6 -1,3 18,2 12,7 12,4 12 7 27 14 SE 1008,9 59 5 0,0
15.04.2019 18:00:00 19,0 -1,0 19,4 12,6 12,4 16 9 30 16 SE 1008,8 50 0 0,0
15.04.2019 17:00:00 18,9 -3,3 19,1 12,6 12,4 21 11 31 17 SE 1009,2 37 0 0,0
15.04.2019 16:00:00 18,1 -3,4 18,8 12,6 12,4 16 9 30 16 SE 1010,1 45 0 0,0
15.04.2019 15:00:00 17,7 -2,1 18,3 12,6 12,4 17 9 29 16 ESE 1010,7 40 0 0,0
15.04.2019 14:00:00 16,9 -3,8 18,5 12,7 12,4 21 11 31 17 E 1011,4 37 0 0,0
15.04.2019 13:00:00 15,6 -1,9 18,2 12,7 12,4 19 11 32 17 E 1012,5 53 21 0,0
15.04.2019 12:00:00 15,0 -0,8 16,1 12,8 12,4 20 11 31 17 E 1013,5 57 60 0,0
15.04.2019 11:00:00 12,2 -1,0 13,5 12,8 12,4 18 10 26 14 E 1014,5 60 53 0,0
15.04.2019 10:00:00 9,4 -2,0 9,7 12,9 12,4 16 9 26 14 E 1015,4 32 60 0,0
15.04.2019 09:00:00 6,8 -2,6 5,1 13,0 12,4 14 8 21 11 E 1016,1 27 43 0,0
15.04.2019 08:00:00 5,1 -2,7 4,0 13,0 12,4 14 8 23 12 ENE 1015,9 21 20 0,0
15.04.2019 07:00:00 5,1 -3,2 3,8 13,1 12,4 18 10 26 14 E 1015,9 23 0 0,0
15.04.2019 06:00:00 5,1 -2,7 3,8 13,1 12,4 15 8 19 10 ENE 1017,0 22 0 0,0
15.04.2019 05:00:00 5,5 -2,8 4,1 13,2 12,4 10 6 14 8 E 1017,5 23 0 0,0
15.04.2019 04:00:00 6,2 -2,9 4,9 13,2 12,4 11 6 16 9 ENE 1017,9 26 0 0,0
15.04.2019 03:00:00 6,9 -2,8 5,4 13,2 12,4 12 6 17 9 ENE 1018,6 25 0 0,0
15.04.2019 02:00:00 7,9 -3,0 6,5 13,2 12,4 13 7 21 11 E 1019,0 28 0 0,0
15.04.2019 01:00:00 8,3 -2,7 6,8 13,2 12,4 13 7 19 11 NE 1019,5 27 0 0,0
15.04.2019 00:00:00 9,0 -2,9 7,7 13,1 12,4 14 8 22 12 NE 1019,4 27 0 0,0
14.04.2019 23:00:00 10,4 -2,6 8,7 13,0 12,4 14 7 19 11 NE 1019,7 27 0 0,0
14.04.2019 22:00:00 10,7 -2,7 9,2 13,0 12,4 13 7 21 11 NE 1019,4 29 0 0,0
14.04.2019 21:00:00 12,1 -2,9 11,5 12,9 12,4 15 8 28 15 NE 1019,0 31 10 0,0
14.04.2019 20:00:00 13,4 -3,4 12,8 12,8 12,4 17 9 26 14 NNE 1018,5 24 60 0,0
14.04.2019 19:00:00 13,9 -4,3 15,5 12,8 12,4 16 9 29 15 NE 1018,1 46 54 0,0
14.04.2019 18:00:00 14,0 -4,7 16,0 12,7 12,4 16 9 27 15 NNE 1018,3 33 33 0,0
14.04.2019 17:00:00 14,5 -3,3 18,0 12,7 12,4 12 6 27 15 NE 1018,8 46 53 0,0
14.04.2019 16:00:00 13,7 -5,0 18,1 12,7 12,4 17 9 28 15 NNE 1019,0 26 60 0,0
14.04.2019 15:00:00 12,9 -4,7 18,6 12,8 12,3 14 8 28 15 ENE 1019,3 21 60 0,0

tt = Température de l'air
td = dewpoint
tt 5cm = Température de l'air 5cm
tt -20cm = Température de l'air -20cm
tt -100cm = Température de l'air -100cm
ff = Vitesse du vent
fx = gusts
dd = Direction du vent
ppp = reduced air pressure
vv = visibility
sd = Ensoleillement
rr = Quantités de précipitations

stations d'obs. à proximité